Temperature
12 12 12 12 12 12 12 12 12 12 12 12 12 12 12 12 12 13 13 13 13 13 13 13 12 12 12 12 11 11 11 11 10 10 10 10 10 10 10 10 10 10 10
12 11 11 11 11 11 11 11 11 12 12 12 12 12 12 12 12 12 12 12 12 12 12 12 12 12 12 11 11 11 11 11 10 10 10 9 10 10 10 10 10 10 10
11 11 11 11 11 11 11 11 11 11 11 11 11 11 11 12 12 12 12 12 12 12 12 12 12 12 11 11 11 11 11 10 10 10 9 9 9 9 10 10 10 10 10
11 10 10 10 10 10 10 10 11 11 11 11 11 11 11 11 11 11 12 12 12 12 12 12 12 11 11 11 11 11 11 10 10 10 9 9 9 9 9 9 9 9 9
10 10 10 10 10 10 10 10 10 10 10 11 11 11 11 11 11 11 11 11 11 11 11 11 11 11 11 11 11 10 10 10 10 9 9 9 9 9 9 8 8 9 9
9 9 9 9 9 9 9 9 9 10 10 10 10 10 11 10 10 10 11 11 11 11 11 11 11 11 11 11 10 10 10 10 10 9 9 9 9 9 8 8 8 8 8
8 8 9 9 9 9 9 9 9 9 9 10 10 10 10 10 10 10 10 10 10 10 10 10 10 10 10 10 10 10 10 9 9 9 9 9 9 8 8 8 8 7 7
7 8 8 8 8 8 8 8 9 9 9 9 9 10 10 10 10 10 10 10 10 10 10 10 10 10 10 10 10 9 9 9 9 9 8 8 8 8 8 8 7 7 7
7 7 7 7 8 8 8 8 8 8 9 9 9 9 9 9 9 9 9 9 10 10 9 9 9 9 9 9 9 9 9 8 8 8 8 8 7 7 7 7 7 7 6
6 6 6 6 7 7 7 7 8 8 8 8 8 8 9 9 9 9 9 9 9 9 9 9 9 9 9 9 9 8 8 8 8 7 7 7 7 7 7 7 6 6 6
5 5 5 5 6 6 7 7 7 7 8 8 8 8 8 8 8 8 8 8 8 8 8 8 8 8 8 8 8 8 7 7 7 7 7 7 6 6 6 6 6 6 5
4 4 4 5 5 6 6 6 7 7 7 7 7 7 7 8 8 8 8 8 8 8 8 8 8 8 7 7 7 7 7 7 7 6 6 6 6 6 6 6 5 5 5
3 3 4 4 4 5 5 5 6 6 6 6 6 7 7 7 7 7 7 7 7 7 7 7 7 7 7 7 7 6 6 6 6 6 6 6 5 5 5 5 5 5 5
3 3 3 3 3 4 4 4 5 5 6 6 6 6 6 6 6 7 7 7 7 7 6 6 6 6 6 6 6 6 6 6 6 5 5 5 5 5 5 5 4 4 4
2 2 2 2 3 3 3 4 4 5 5 5 5 5 6 6 6 6 6 6 6 6 6 6 6 6 6 6 6 5 5 5 5 5 4 4 4 4 4 4 4 4 3
1 1 1 2 2 2 3 3 4 4 4 5 5 5 5 5 5 5 5 5 5 5 5 5 5 5 5 5 5 5 5 4 4 4 4 4 3 3 3 3 3 3 3
1 1 1 1 1 2 2 2 3 3 4 4 4 4 4 4 4 5 5 5 5 4 4 4 4 4 4 4 4 4 4 4 4 3 3 3 3 3 3 3 2 2 2
0 0 0 0 1 1 2 2 2 3 3 3 3 3 4 4 4 4 4 4 4 4 3 3 3 3 3 3 3 3 3 3 3 3 3 2 2 2 2 2 2 2 1
-0 -0 -0 -0 0 1 1 2 2 2 2 2 3 3 3 3 3 3 3 3 3 3 3 3 3 3 3 2 3 3 2 2 2 2 2 2 2 1 1 1 1 1 1
-1 -0 -0 -0 -0 0 1 1 1 2 2 2 2 2 2 2 2 2 2 2 2 2 2 2 2 2 2 2 2 2 2 2 1 1 1 1 1 1 1 1 0 0 0
-1 -1 -1 -1 -0 -0 0 0 1 1 1 1 1 1 2 2 2 2 1 1 1 1 1 1 1 1 1 1 1 1 1 1 1 1 1 0 0 0 0 -0 -0 -0 -0
-1 -1 -1 -1 -1 -1 -0 -0 0 0 0 1 1 1 1 1 1 1 1 1 1 1 0 0 0 0 0 0 0 0 0 0 0 0 -0 -0 -0 -0 -1 -1 -1 -1 -1
-2 -2 -2 -2 -2 -1 -1 -1 -1 -0 -0 -0 -0 0 0 -0 -0 0 0 -0 -0 -0 -0 -1 -1 -1 -1 -1 -1 -1 -1 -1 -1 -1 -1 -1 -1 -1 -1 -1 -1 -1 -2
-2 -2 -2 -2 -2 -2 -2 -2 -2 -1 -1 -1 -1 -1 -1 -1 -1 -1 -1 -1 -1 -1 -1 -1 -1 -1 -1 -1 -1 -1 -1 -1 -1 -2 -2 -2 -2 -2 -2 -2 -2 -2 -2
-3 -3 -3 -3 -3 -3 -2 -2 -2 -2 -2 -2 -2 -2 -2 -2 -2 -1 -1 -1 -1 -1 -1 -1 -1 -1 -1 -2 -2 -2 -2 -2 -2 -2 -2 -2 -2 -2 -2 -2 -3 -3 -3
-3 -3 -3 -3 -3 -3 -3 -3 -3 -3 -3 -2 -3 -2 -2 -2 -2 -2 -2 -2 -2 -2 -2 -2 -2 -2 -2 -2 -2 -2 -2 -3 -3 -3 -3 -3 -3 -3 -3 -3 -3 -3 -4
Wind_Speed
0 0 1 1 0 1 1 1 1 2 2 3 3 3 3 3 3 3 5 7 8 8 7 5 6 5 5 5 5 4 4 3 3 2 1 1 1 2 2 2 3 3 4
0 0 0 0 1 0 1 2 2 2 3 3 3 3 3 3 3 3 4 7 8 8 7 6 6 5 4 5 5 5 3 3 3 2 1 0 2 2 2 2 2 2 3
1 1 0 0 1 1 1 2 2 2 2 2 3 2 2 2 2 3 4 5 7 8 7 7 6 5 5 5 6 5 5 4 3 2 2 2 2 1 1 2 2 2 1
1 1 1 1 1 2 2 2 2 2 2 3 3 4 4 4 3 3 3 4 5 6 7 7 6 5 5 5 5 4 3 5 4 2 1 2 2 2 1 2 2 2 2
1 2 2 2 2 2 1 2 2 3 3 3 4 5 4 3 3 4 4 4 4 5 7 7 6 5 5 5 5 4 4 4 4 3 1 1 1 1 2 2 2 2 2
2 2 2 2 2 2 1 2 2 3 3 4 4 4 4 5 6 5 5 4 4 4 6 6 6 5 5 5 5 5 5 4 3 3 2 2 1 2 2 2 2 2 2
3 3 3 3 2 2 2 2 2 3 3 4 4 4 4 6 7 7 6 5 4 4 7 6 6 6 5 5 4 4 5 4 4 4 2 2 2 1 1 1 1 2 2
4 4 4 4 3 2 2 2 3 3 3 4 4 3 3 3 4 5 5 5 4 4 6 6 6 6 6 5 5 4 4 4 4 4 3 1 1 1 1 2 1 2 2
6 7 6 5 5 3 3 3 3 3 3 3 3 3 3 3 4 4 5 4 4 4 5 6 6 6 6 6 5 4 4 4 3 3 3 2 1 1 1 1 2 2 3
7 7 7 6 5 5 4 3 3 3 2 3 3 3 3 3 3 4 5 4 5 4 5 5 6 6 6 6 5 4 4 4 3 3 3 2 1 1 1 1 1 1 2
7 7 7 7 6 5 4 3 2 1 1 2 2 2 2 2 3 3 4 5 4 5 5 5 5 6 6 6 6 5 5 5 4 3 3 3 2 1 1 1 1 1 2
6 7 7 7 6 5 5 4 2 1 1 1 1 1 2 2 3 3 4 4 5 5 5 5 5 6 6 6 6 6 5 5 5 4 4 3 2 2 1 1 1 1 2
6 6 6 6 7 6 5 5 4 2 1 1 1 1 2 2 2 3 4 4 5 5 5 5 5 5 6 6 6 5 5 4 4 4 4 3 3 2 2 1 2 2 2
6 7 6 6 7 7 6 6 5 3 2 1 1 1 1 2 2 2 3 4 5 5 5 5 5 5 5 5 6 5 5 4 3 3 3 3 3 3 2 2 2 1 1
7 8 8 6 7 8 7 6 4 3 3 1 0 0 0 1 1 2 2 3 4 4 4 4 4 4 4 4 6 5 5 5 4 3 3 2 2 2 2 2 2 1 1
8 8 8 8 7 7 8 7 5 4 3 2 2 1 1 1 2 2 3 3 3 3 4 4 4 4 3 6 6 5 5 4 4 3 2 2 2 2 1 2 2 2 2
8 8 8 8 8 7 7 7 5 4 2 2 2 1 1 2 2 2 2 3 3 3 3 3 3 3 4 6 6 5 4 4 4 3 3 2 2 1 1 1 1 2 3
7 7 7 8 7 7 7 6 6 4 3 2 2 2 2 2 2 3 2 2 2 3 3 3 4 3 3 4 5 5 3 3 2 2 3 3 2 2 1 1 1 1 2
6 5 6 7 7 7 7 5 5 5 4 3 2 2 1 2 3 3 2 2 3 3 3 3 4 4 4 5 5 5 3 3 2 2 1 2 2 2 1 1 1 2 3
5 5 5 6 7 7 7 6 5 4 4 3 2 2 1 2 3 2 2 2 3 3 4 4 4 4 4 5 5 4 3 3 2 1 1 1 1 2 2 1 2 3 3
5 5 5 5 6 6 6 6 5 5 5 4 3 2 2 2 3 3 3 3 4 4 4 4 3 4 4 4 4 3 2 2 2 1 1 0 1 2 3 2 2 3 3
4 4 4 5 5 5 5 5 6 6 5 4 3 3 3 3 3 3 3 3 4 4 4 4 3 3 3 3 3 3 2 2 1 1 0 0 1 3 3 3 3 3 3
4 4 4 4 5 5 5 5 5 5 5 4 4 4 4 4 3 3 3 3 3 3 2 3 2 2 2 2 3 3 2 2 1 0 1 2 2 3 2 2 3 3 2
4 3 4 4 4 5 4 4 5 4 4 4 4 3 4 4 3 3 3 3 2 2 2 2 2 2 1 1 1 1 1 1 1 1 1 2 3 2 2 2 2 2 1
3 3 3 3 4 4 4 5 4 4 4 3 3 3 3 3 3 3 3 3 2 1 2 1 2 2 1 1 1 1 0 0 0 1 1 1 1 1 1 1 1 1 2
2 3 3 3 4 4 4 4 4 3 3 3 3 2 2 2 2 2 3 4 3 3 3 3 2 1 0 1 1 2 1 1 0 1 0 0 1 1 1 1 1 1 1
Wind_Direction
263 329 289 291 30 91 125 168 214 209 177 168 176 182 192 184 169 161 162 161 157 156 149 149 152 151 157 162 157 147 142 145 140 111 61 311 222 198 197 167 160 166 175
257 311 330 353 339 154 171 182 207 214 204 187 188 191 192 189 180 167 170 167 159 156 156 152 158 157 158 162 165 152 152 166 162 146 138 254 297 271 211 190 187 186 173
306 329 319 306 291 245 190 213 218 216 214 200 174 175 173 168 179 179 179 170 162 159 156 157 156 160 163 172 176 171 163 174 190 171 163 178 216 253 259 223 203 191 182
307 311 284 263 274 257 209 195 211 225 218 201 181 182 184 188 193 176 170 166 160 157 157 158 159 163 166 173 182 173 168 163 183 208 211 194 167 164 234 267 241 211 199
273 286 284 259 273 269 216 202 207 218 225 207 200 196 193 192 167 159 158 173 169 164 159 157 157 165 168 172 176 173 173 173 177 184 198 240 294 207 190 240 256 260 237
315 296 291 287 288 298 243 219 218 222 218 213 204 202 197 186 168 167 169 175 181 176 169 163 161 166 167 169 175 180 176 180 180 184 180 177 194 214 207 230 250 254 251
325 322 317 311 306 311 280 247 240 244 230 215 206 204 202 193 182 176 177 175 182 187 180 172 171 168 168 166 167 171 177 179 177 181 191 199 212 202 192 197 253 271 269
346 333 324 313 308 299 279 246 240 237 231 220 212 201 192 192 192 184 178 177 180 187 179 171 172 173 168 165 165 166 175 178 178 183 184 190 214 196 194 185 195 271 279
356 346 334 330 327 308 279 259 244 238 231 224 212 198 194 196 196 186 167 168 169 168 163 171 171 173 168 165 161 165 172 171 177 177 175 187 203 193 174 175 188 198 251
352 345 337 331 325 316 307 292 266 233 225 218 213 206 200 201 192 180 161 158 160 157 154 166 171 168 167 163 160 161 166 163 168 166 160 173 191 186 179 192 231 211 224
343 338 333 329 328 328 321 312 285 271 239 227 221 197 192 198 181 170 165 159 153 152 158 163 168 169 168 166 167 174 171 168 168 170 167 177 181 181 192 210 229 244 231
341 335 334 333 336 338 334 326 319 301 290 273 237 194 189 184 176 168 166 155 157 160 161 165 164 173 169 167 170 176 171 171 175 175 171 184 184 186 193 196 220 242 238
346 344 345 343 343 343 342 336 333 335 311 294 240 213 199 188 186 177 168 162 161 161 164 165 173 169 168 169 171 170 168 171 175 174 177 186 183 200 198 194 220 248 263
345 350 349 343 344 345 345 340 337 344 341 312 226 207 216 185 175 173 162 158 157 159 164 169 169 164 160 167 168 165 162 163 166 170 178 185 190 197 198 207 217 245 260
347 351 347 347 348 345 342 339 341 359 360 349 325 247 347 131 135 142 143 147 147 149 152 152 156 153 152 160 163 160 162 166 168 172 180 189 189 200 218 228 215 216 246
343 345 346 346 347 343 338 338 339 350 5 8 4 5 46 104 125 137 140 142 143 142 140 145 153 154 154 156 158 157 164 169 170 168 172 177 178 194 233 256 255 239 232
337 341 342 340 338 336 335 333 333 341 358 8 4 5 49 91 97 108 129 138 143 141 142 147 144 145 146 154 158 154 148 157 165 168 173 186 190 183 200 249 306 304 289
331 334 336 334 335 337 333 335 346 355 360 4 19 15 35 83 85 89 108 120 132 143 138 131 129 131 143 150 156 143 122 127 145 160 171 177 184 202 202 202 277 281 293
324 331 332 329 334 338 335 343 353 2 8 3 11 13 47 75 81 84 98 107 115 121 126 128 129 129 135 136 134 120 120 125 124 130 141 153 168 216 241 212 257 282 291
333 335 336 337 339 338 341 349 352 1 360 355 1 8 60 82 83 82 85 96 112 114 107 103 111 120 126 135 128 122 125 127 125 116 129 185 216 253 275 239 236 264 278
330 336 339 336 334 338 348 350 356 358 353 1 20 36 57 76 86 78 74 90 98 97 94 91 89 99 111 115 117 114 112 134 139 141 140 188 294 305 299 296 265 272 292
329 335 335 334 339 348 352 353 356 353 357 13 37 44 50 61 77 87 80 86 96 95 97 97 88 88 97 100 108 94 84 78 124 159 151 270 310 316 318 322 309 311 326
324 333 334 334 346 353 357 354 351 359 6 21 39 49 53 57 63 80 85 81 84 93 96 100 101 88 74 79 80 77 73 50 34 38 320 318 324 337 340 329 323 339 345
323 333 338 339 344 350 358 356 352 1 12 24 30 40 52 53 50 58 71 83 87 96 104 114 114 102 80 69 73 76 80 72 43 39 7 353 348 351 345 342 350 358 326
319 329 328 330 337 348 357 356 359 7 16 24 31 35 45 55 50 49 57 69 70 122 134 126 127 130 154 236 281 309 27 130 157 29 37 26 353 349 357 1 352 355 350
320 326 331 339 340 349 353 355 359 10 21 23 23 28 35 49 57 60 52 50 64 61 59 61 75 74 14 315 307 304 302 292 169 40 108 271 274 273 290 309 323 331 328
Height
1488 1488 1489 1490 1490 1491 1492 1493 1495 1497 1498 1500 1501 1503 1506 1508 1510 1512 1515 1516 1519 1521 1523 1525 1528 1530 1532 1533 1535 1537 1538 1539 1541 1542 1542 1543 1543 1543 1544 1543 1543 1543 1543
1485 1486 1486 1487 1487 1488 1489 1490 1491 1493 1495 1496 1498 1500 1503 1505 1507 1509 1511 1513 1515 1518 1520 1522 1524 1526 1528 1530 1532 1533 1535 1537 1538 1539 1540 1540 1542 1541 1541 1541 1540 1540 1540
1483 1483 1484 1484 1485 1485 1486 1487 1488 1489 1491 1493 1495 1497 1499 1501 1503 1504 1506 1509 1511 1513 1516 1518 1520 1522 1525 1526 1528 1530 1531 1533 1535 1536 1537 1538 1537 1537 1538 1538 1538 1537 1537
1481 1482 1482 1482 1482 1483 1483 1484 1485 1486 1488 1489 1491 1493 1494 1496 1498 1499 1502 1505 1507 1509 1512 1514 1517 1519 1521 1523 1524 1526 1528 1529 1530 1532 1534 1535 1535 1535 1534 1534 1534 1534 1534
1480 1480 1480 1480 1480 1480 1480 1481 1481 1482 1484 1485 1487 1489 1490 1492 1494 1497 1499 1501 1503 1506 1508 1510 1512 1515 1517 1519 1521 1523 1524 1525 1527 1528 1529 1531 1531 1531 1531 1530 1530 1531 1531
1478 1478 1478 1478 1477 1477 1477 1477 1478 1479 1480 1481 1483 1484 1486 1488 1490 1492 1495 1497 1499 1502 1504 1505 1508 1510 1513 1515 1517 1518 1520 1521 1523 1524 1525 1526 1527 1527 1528 1527 1526 1526 1527
1476 1475 1475 1474 1473 1473 1474 1474 1474 1475 1476 1478 1479 1481 1482 1484 1486 1488 1490 1492 1495 1497 1499 1501 1503 1506 1509 1511 1513 1514 1516 1517 1518 1520 1521 1522 1523 1524 1524 1524 1523 1523 1522
1473 1473 1472 1471 1471 1471 1470 1470 1471 1472 1473 1474 1475 1477 1479 1480 1482 1484 1486 1488 1491 1493 1495 1497 1500 1502 1504 1507 1508 1510 1512 1513 1515 1516 1517 1518 1519 1520 1521 1521 1521 1519 1519
1472 1471 1470 1469 1468 1468 1468 1467 1468 1468 1469 1470 1471 1473 1475 1477 1478 1480 1482 1484 1487 1489 1491 1493 1495 1498 1500 1502 1504 1505 1507 1509 1510 1512 1513 1514 1515 1516 1517 1517 1518 1518 1515
1471 1470 1469 1467 1466 1466 1465 1465 1464 1465 1466 1467 1468 1469 1471 1472 1474 1476 1477 1480 1483 1485 1487 1489 1491 1493 1495 1497 1499 1501 1503 1505 1506 1508 1509 1510 1511 1512 1513 1513 1514 1513 1513
1471 1469 1467 1465 1464 1463 1462 1461 1461 1461 1462 1463 1464 1465 1467 1468 1470 1471 1473 1476 1478 1481 1483 1485 1486 1488 1490 1493 1495 1497 1499 1501 1502 1504 1505 1506 1507 1508 1509 1509 1509 1509 1509
1470 1468 1466 1464 1462 1460 1459 1459 1458 1458 1458 1459 1460 1461 1462 1464 1466 1467 1469 1471 1474 1476 1478 1481 1482 1484 1486 1489 1491 1493 1494 1496 1497 1499 1501 1502 1503 1504 1504 1505 1505 1505 1505
1469 1466 1464 1462 1460 1458 1457 1456 1455 1455 1455 1456 1457 1457 1458 1460 1461 1463 1465 1467 1470 1472 1474 1476 1478 1480 1482 1484 1487 1489 1490 1492 1493 1495 1496 1497 1499 1500 1500 1500 1501 1501 1501
1468 1465 1462 1461 1459 1457 1455 1454 1453 1453 1453 1453 1454 1453 1455 1456 1458 1460 1461 1463 1466 1468 1470 1472 1474 1476 1478 1480 1482 1484 1486 1488 1489 1491 1492 1494 1495 1495 1496 1496 1496 1496 1496
1467 1464 1462 1460 1457 1455 1453 1452 1450 1450 1450 1451 1451 1451 1452 1453 1454 1456 1457 1459 1462 1464 1466 1468 1470 1472 1474 1476 1478 1480 1482 1484 1485 1487 1488 1490 1491 1492 1492 1492 1492 1492 1491
1467 1464 1462 1459 1456 1454 1452 1450 1449 1448 1448 1448 1448 1448 1449 1450 1451 1452 1453 1456 1458 1460 1462 1464 1466 1468 1470 1473 1475 1476 1478 1480 1481 1483 1484 1486 1487 1487 1488 1488 1487 1488 1487
1466 1463 1461 1459 1456 1454 1451 1449 1448 1447 1446 1446 1446 1446 1447 1447 1447 1448 1450 1452 1454 1457 1459 1461 1463 1465 1467 1469 1471 1473 1475 1476 1477 1479 1480 1481 1482 1483 1483 1483 1483 1483 1483
1466 1463 1460 1458 1455 1453 1451 1449 1447 1446 1445 1444 1444 1445 1444 1444 1445 1446 1447 1449 1452 1454 1456 1458 1460 1462 1464 1466 1468 1470 1471 1473 1474 1476 1477 1478 1478 1479 1479 1479 1479 1479 1479
1465 1463 1460 1457 1454 1452 1450 1448 1446 1445 1444 1443 1443 1443 1443 1443 1443 1444 1445 1447 1449 1451 1453 1455 1457 1459 1461 1463 1465 1467 1468 1470 1471 1472 1473 1474 1475 1475 1475 1475 1475 1475 1475
1464 1461 1458 1456 1453 1451 1449 1447 1445 1444 1443 1443 1442 1442 1442 1442 1442 1443 1444 1445 1447 1449 1451 1453 1455 1457 1458 1460 1462 1464 1465 1466 1467 1469 1469 1470 1471 1472 1472 1472 1472 1471 1471
1462 1459 1457 1455 1453 1450 1448 1446 1445 1443 1443 1442 1442 1442 1441 1441 1442 1442 1443 1444 1446 1447 1449 1451 1453 1454 1456 1458 1460 1461 1462 1463 1464 1465 1466 1467 1468 1468 1468 1469 1468 1468 1467
1459 1457 1455 1453 1452 1449 1447 1446 1444 1443 1442 1441 1441 1441 1441 1441 1442 1442 1443 1444 1445 1446 1448 1450 1452 1454 1456 1457 1458 1459 1460 1461 1462 1462 1463 1464 1464 1465 1464 1464 1464 1464 1463
1457 1455 1453 1451 1449 1448 1447 1445 1444 1443 1441 1440 1440 1440 1440 1441 1441 1442 1443 1444 1445 1446 1448 1449 1451 1452 1454 1455 1456 1457 1458 1459 1460 1460 1460 1461 1461 1461 1460 1460 1460 1460 1459
1455 1454 1452 1450 1449 1447 1446 1445 1444 1442 1441 1440 1440 1440 1440 1440 1441 1442 1443 1444 1445 1446 1448 1449 1450 1451 1452 1454 1454 1455 1455 1456 1457 1457 1457 1457 1457 1457 1457 1457 1457 1456 1456
1454 1452 1450 1449 1448 1446 1445 1444 1443 1442 1441 1440 1439 1439 1440 1440 1441 1442 1443 1444 1445 1447 1448 1448 1449 1450 1451 1452 1453 1452 1453 1453 1454 1454 1454 1454 1454 1454 1453 1453 1453 1453 1452
1452 1450 1449 1447 1446 1445 1443 1442 1441 1441 1440 1439 1439 1439 1439 1440 1440 1442 1443 1444 1445 1446 1447 1447 1448 1449 1449 1450 1450 1451 1451 1451 1451 1451 1451 1450 1450 1450 1450 1450 1449 1449 1448